When you browse on this site, cookies collect data to enhance your experience and personalize the content and advertising you see.
Visit our Privacy Policy to learn more. By continuing to use the site, you agree to this use of cookies and data.
  • In Spain
  • List of Countries
  • For 7 days
  • Water Temperature
  • Satellite Maps
  • Weather Map
  • Weather Widgets
  • user-avatar
    Login

    Hourly Weather Basse Santa Su

    Today, 21 November, Wednesday

    Time Temperature Precipitation Wind Pressure Humidity
    00:00 +29°C° 0 mm 1 mps 757 mmHg 36%
    01:00 +29°C° 0 mm 1 mps 757 mmHg 36%
    02:00 +28°C° 0 mm 1 mps 757 mmHg 36%
    03:00 +28°C° 0 mm 1 mps 757 mmHg 35%
    04:00 +28°C° 0 mm 1 mps 757 mmHg 35%
    05:00 +27°C° 0 mm 2 mps 757 mmHg 32%
    06:00 +29°C° 0 mm 2 mps 758 mmHg 29%
    07:00 +30°C° 0 mm 3 mps 758 mmHg 27%
    08:00 +33°C° 0 mm 3 mps 758 mmHg 25%
    09:00 +35°C° 0 mm 3 mps 758 mmHg 22%
    10:00 +38°C° 0 mm 3 mps 758 mmHg 19%
    11:00 +40°C° 0 mm 3 mps 757 mmHg 16%
    12:00 +42°C° 0 mm 3 mps 757 mmHg 16%
    13:00 +41°C° 0 mm 2 mps 756 mmHg 16%
    14:00 +42°C° 0 mm 2 mps 755 mmHg 16%
    15:00 +41°C° 0 mm 2 mps 755 mmHg 18%
    16:00 +40°C° 0 mm 1 mps 755 mmHg 20%
    17:00 +39°C° 0 mm 1 mps 755 mmHg 21%
    18:00 +36°C° 0 mm 1 mps 755 mmHg 24%
    19:00 +34°C° 0 mm 1 mps 756 mmHg 27%
    20:00 +33°C° 0 mm 1 mps 756 mmHg 30%
    21:00 +32°C° 0 mm 1 mps 757 mmHg 31%
    22:00 +32°C° 0 mm 1 mps 757 mmHg 33%
    23:00 +31°C° 0 mm 1 mps 757 mmHg 34%

    Tomorrow, 22 November, Thursday

    Time Temperature Precipitation Wind Pressure Humidity
    00:00 +31°C° 0 mm 1 mps 757 mmHg 34%
    01:00 +30°C° 0 mm 1 mps 757 mmHg 34%
    02:00 +29°C° 0 mm 1 mps 756 mmHg 35%
    03:00 +29°C° 0 mm 1 mps 757 mmHg 37%
    04:00 +28°C° 0 mm 1 mps 757 mmHg 39%
    05:00 +27°C° 0 mm 1 mps 757 mmHg 41%
    06:00 +29°C° 0 mm 2 mps 757 mmHg 36%
    07:00 +30°C° 0 mm 2 mps 758 mmHg 32%
    08:00 +33°C° 0 mm 3 mps 758 mmHg 28%
    09:00 +35°C° 0 mm 3 mps 758 mmHg 24%
    10:00 +38°C° 0 mm 3 mps 757 mmHg 20%
    11:00 +41°C° 0 mm 4 mps 757 mmHg 17%
    12:00 +42°C° 0 mm 3 mps 756 mmHg 16%
    13:00 +43°C° 0 mm 3 mps 755 mmHg 15%
    14:00 +43°C° 0 mm 2 mps 754 mmHg 15%
    15:00 +41°C° 0 mm 2 mps 754 mmHg 16%
    16:00 +40°C° 0 mm 1 mps 754 mmHg 17%
    17:00 +39°C° 0 mm 1 mps 754 mmHg 19%
    18:00 +37°C° 0 mm 1 mps 754 mmHg 20%
    19:00 +35°C° 0 mm 1 mps 755 mmHg 22%
    20:00 +33°C° 0 mm 1 mps 755 mmHg 24%
    21:00 +33°C° 0 mm 1 mps 756 mmHg 25%
    22:00 +32°C° 0 mm 2 mps 756 mmHg 25%
    23:00 +32°C° 0 mm 2 mps 756 mmHg 26%

    Day after tomorrow, 23 November, Friday

    Time Temperature Precipitation Wind Pressure Humidity
    00:00 +31°C° 0 mm 3 mps 756 mmHg 27%
    01:00 +31°C° 0 mm 3 mps 756 mmHg 28%
    02:00 +30°C° 0 mm 3 mps 756 mmHg 29%
    03:00 +30°C° 0 mm 3 mps 756 mmHg 30%
    04:00 +29°C° 0 mm 3 mps 756 mmHg 32%
    05:00 +29°C° 0 mm 3 mps 756 mmHg 33%
    06:00 +30°C° 0 mm 4 mps 757 mmHg 31%
    07:00 +32°C° 0 mm 4 mps 757 mmHg 29%
    08:00 +33°C° 0 mm 5 mps 758 mmHg 27%
    09:00 +35°C° 0 mm 5 mps 758 mmHg 24%
    10:00 +37°C° 0 mm 5 mps 757 mmHg 21%
    11:00 +40°C° 0 mm 5 mps 757 mmHg 18%
    12:00 +41°C° 0 mm 4 mps 756 mmHg 16%
    13:00 +42°C° 0 mm 4 mps 755 mmHg 15%
    14:00 +43°C° 0 mm 4 mps 754 mmHg 13%
    15:00 +42°C° 0 mm 3 mps 754 mmHg 14%
    16:00 +40°C° 0 mm 3 mps 754 mmHg 15%
    17:00 +39°C° 0 mm 3 mps 754 mmHg 16%
    18:00 +37°C° 0 mm 3 mps 755 mmHg 17%
    19:00 +36°C° 0 mm 3 mps 756 mmHg 19%
    20:00 +34°C° 0 mm 3 mps 756 mmHg 21%
    21:00 +34°C° 0 mm 3 mps 756 mmHg 22%
    22:00 +33°C° 0 mm 3 mps 756 mmHg 23%
    23:00 +31°C° 0 mm 3 mps 756 mmHg 24%

    24 November, Saturday

    Time Temperature Precipitation Wind Pressure Humidity
    00:00 +31°C° 0 mm 3 mps 756 mmHg 25%
    01:00 +30°C° 0 mm 3 mps 756 mmHg 27%
    02:00 +29°C° 0 mm 3 mps 755 mmHg 28%
    03:00 +29°C° 0 mm 3 mps 755 mmHg 29%
    04:00 +28°C° 0 mm 3 mps 756 mmHg 31%
    05:00 +27°C° 0 mm 3 mps 756 mmHg 32%
    06:00 +29°C° 0 mm 3 mps 756 mmHg 31%
    07:00 +30°C° 0 mm 3 mps 757 mmHg 29%
    08:00 +31°C° 0 mm 3 mps 757 mmHg 27%
    09:00 +34°C° 0 mm 3 mps 757 mmHg 24%
    10:00 +37°C° 0 mm 4 mps 757 mmHg 20%
    11:00 +40°C° 0 mm 4 mps 757 mmHg 17%
    12:00 +41°C° 0 mm 4 mps 756 mmHg 15%
    13:00 +42°C° 0 mm 3 mps 755 mmHg 13%
    14:00 +43°C° 0 mm 3 mps 754 mmHg 12%
    15:00 +41°C° 0 mm 2 mps 754 mmHg 13%
    16:00 +40°C° 0 mm 2 mps 754 mmHg 13%
    17:00 +39°C° 0 mm 1 mps 754 mmHg 14%
    18:00 +36°C° 0 mm 1 mps 754 mmHg 15%
    19:00 +35°C° 0 mm 1 mps 755 mmHg 17%
    20:00 +33°C° 0 mm 1 mps 756 mmHg 18%
    21:00 +34°C° 0 mm 2 mps 756 mmHg 19%
    22:00 +32°C° 0 mm 2 mps 756 mmHg 20%
    23:00 +32°C° 0 mm 2 mps 756 mmHg 21%

    25 November, Sunday

    Time Temperature Precipitation Wind Pressure Humidity
    00:00 +31°C° 0 mm 2 mps 756 mmHg 24%
    01:00 +30°C° 0 mm 2 mps 756 mmHg 26%
    02:00 +29°C° 0 mm 2 mps 755 mmHg 29%
    03:00 +28°C° 0 mm 1 mps 755 mmHg 33%
    04:00 +27°C° 0 mm 1 mps 756 mmHg 37%
    05:00 +26°C° 0 mm 1 mps 756 mmHg 41%
    06:00 +28°C° 0 mm 1 mps 756 mmHg 39%
    07:00 +29°C° 0 mm 1 mps 757 mmHg 37%
    08:00 +31°C° 0 mm 2 mps 757 mmHg 36%
    09:00 +34°C° 0 mm 2 mps 757 mmHg 30%
    10:00 +36°C° 0 mm 3 mps 757 mmHg 25%
    11:00 +39°C° 0 mm 3 mps 756 mmHg 19%
    12:00 +40°C° 0 mm 3 mps 756 mmHg 17%
    13:00 +42°C° 0 mm 3 mps 755 mmHg 15%
    14:00 +43°C° 0 mm 3 mps 754 mmHg 12%
    15:00 +42°C° 0 mm 3 mps 754 mmHg 13%
    16:00 +40°C° 0 mm 2 mps 754 mmHg 14%
    17:00 +39°C° 0 mm 2 mps 754 mmHg 15%
    18:00 +36°C° 0 mm 1 mps 754 mmHg 17%
    19:00 +34°C° 0 mm 1 mps 755 mmHg 19%
    20:00 +32°C° 0 mm 1 mps 755 mmHg 20%
    21:00 +32°C° 0 mm 1 mps 755 mmHg 21%
    22:00 +31°C° 0 mm 1 mps 755 mmHg 21%
    23:00 +31°C° 0 mm 2 mps 755 mmHg 22%

    26 November, Monday

    Time Temperature Precipitation Wind Pressure Humidity
    00:00 +30°C° 0 mm 2 mps 755 mmHg 25%
    01:00 +30°C° 0 mm 2 mps 755 mmHg 27%
    02:00 +29°C° 0 mm 2 mps 754 mmHg 29%
    03:00 +28°C° 0 mm 1 mps 755 mmHg 30%
    04:00 +28°C° 0 mm 1 mps 755 mmHg 31%
    05:00 +28°C° 0 mm 1 mps 755 mmHg 32%
    06:00 +29°C° 0 mm 1 mps 755 mmHg 29%
    07:00 +30°C° 0 mm 2 mps 756 mmHg 26%
    08:00 +31°C° 0 mm 2 mps 756 mmHg 23%
    09:00 +35°C° 0 mm 3 mps 756 mmHg 19%
    10:00 +37°C° 0 mm 3 mps 756 mmHg 15%
    11:00 +39°C° 0 mm 3 mps 755 mmHg 10%
    12:00 +40°C° 0 mm 3 mps 755 mmHg 9%
    13:00 +42°C° 0 mm 3 mps 754 mmHg 8%
    14:00 +43°C° 0 mm 3 mps 753 mmHg 7%
    15:00 +42°C° 0 mm 3 mps 753 mmHg 8%
    16:00 +40°C° 0 mm 2 mps 753 mmHg 8%
    17:00 +37°C° 0 mm 1 mps 753 mmHg 9%
    18:00 +37°C° 0 mm 2 mps 753 mmHg 10%
    19:00 +35°C° 0 mm 2 mps 754 mmHg 11%
    20:00 +32°C° 0 mm 2 mps 755 mmHg 11%
    21:00 +31°C° 0 mm 2 mps 755 mmHg 12%
    22:00 +30°C° 0 mm 2 mps 755 mmHg 12%
    23:00 +30°C° 0 mm 2 mps 755 mmHg 13%
    Show more